THOR ABLESTAR DEB, 145

Orbit data source: Space-Track

THOR ABLESTAR DEB, 145 is space debris in LEO originally from a launch on Thu, 29 Jun 1961 UTC launched from the Air Force Eastern Test Range (AFETR). Debris objects in space refer to the collection of defunct objects orbiting the Earth. Examples of debris include non-operational satellites, rocket bodies, and fragments generated from explosions, collisions, or faulty payload assembly.

Loading next visibility...
Identifier
145, 1961-015AF
Orbit
LEO
Country
Flag of USUS
Related business
Manufacturer
Unknown
Mission
Spacecraft
Bus & Motor
Unknown
Mass
Unknown
Launch date (UTC)
1961-06-29 (64 years ago)
Launch vehicle
Unknown
Launch site
Air Force Eastern Test Range (AFETR)
Object type
Payload
Rocket body
Debris
Shape & HBR
Unknown shape, 0.4 m
Radar Cross Section
Medium (>0.1 m² and <1 m²)

Expand to show TLE details & history
Last TLE update: 21 hours ago

TLE from 21 hours ago
0 THOR ABLESTAR DEB
1 00145U 61015AF  25307.39931618  .00000318  00000-0  25066-3 0  9994
2 00145  66.9262 222.7218 0056565 105.0406 255.6950 14.03096159285038
Epoch: 2025-11-03T09:35Z
TLE epoch observation values (Epoch: 2025-11-03T09:35:00.917Z)
Latitude
0.00001°
Longitude
36.06673°
Altitude
895.559 km
Speed
7.399 km/s
True Right ascension
14h 50m 53s
True Declination
0° 00' 00"
Sunlit
Object was in daylight at epoch
Visualization orbit readout
Latitude
Unknown
Longitude
Unknown
Altitude
Unknown
Speed
Unknown
Apparent Right ascension
Unknown
Apparent Declination
Unknown
Sunlit
N/A
Visualization observer readout
Local Sidereal Time
02:15:58
Azimuth
Unknown
Elevation
Unknown
Doppler factor
Unknown
Orbital elements
Apogee altitude
922.527 km
Perigee altitude
840.399 km
Semi-major axis
7,259.6 km
Eccentricity
0.00566
Inclination
66.9262°
RAAN
222.7218°
Arg. of periapsis
105.0406°
True anomaly
255.06802°
Mean anomaly
255.695°
Eccentric anomaly
255.3814°
Mean motion
3.50893 °/min
Orbital period
102.6 mins
BSTAR
0.00025066

Documentation

Showing up to 5 results
|